Location: Sabana Grande
(18.0777°N, 66.9605°W)
Time: 10:32:17
(UTC-04:00)

ARIANE 6 FM1 Upper Stage - Visible Passes

Search period start: 20 September 2024 00:00
Search period end: 30 September 2024 00:00
Orbit: 566 x 594 km, 62.0° (Epoch: 19 September)

Date Brightness Start Highest point End Pass type
(mag) Time Alt. Az. Time Alt. Az. Time Alt. Az.
20 Sep 5.1 05:06:55 10° N 05:10:29 25° ENE 05:14:03 10° ESE visible
20 Sep 2.6 18:56:45 10° SSW 19:00:56 81° ESE 19:05:12 10° NNE visible
21 Sep 3.9 05:11:02 10° NNW 05:15:14 46° ENE 05:19:23 10° SE visible
21 Sep 3.7 19:01:31 10° SW 19:05:37 50° WNW 19:09:46 10° NNE visible
22 Sep 2.7 05:15:32 10° NNW 05:19:53 90° NW 05:24:14 10° SSE visible
22 Sep 5.0 19:06:45 10° WSW 19:10:19 26° WNW 19:13:56 10° N visible
23 Sep 6.0 03:44:27 10° NE 03:45:06 10° NE 03:45:44 10° ENE visible
23 Sep 3.0 05:20:21 10° NW 05:24:31 45° WSW 05:28:39 10° S visible
23 Sep 5.7 19:12:41 10° W 19:15:05 15° WNW 19:17:30 10° NNW visible
24 Sep 5.4 03:50:46 18° ENE 03:50:46 18° ENE 03:52:59 10° ESE visible
24 Sep 3.9 05:27:14 18° WNW 05:29:05 24° WSW 05:32:33 10° SSW visible
25 Sep 5.4 03:57:41 15° ESE 03:57:41 15° ESE 03:58:33 10° SE visible
25 Sep 4.7 05:34:08 12° WSW 05:34:08 12° WSW 05:35:28 10° SW visible
